Location: Chomutov
(50.4500°N, 13.4333°E)
Time: 18:55:10
(UTC+02:00)

FO-29 - Pass Details

Date: 01 October 2021
Orbit: 800 x 1321 km, 98.6° (Epoch: 23 October)

Event Time Altitude Azimuth Distance (km) Brightness Sun altitude
Exits shadow 22:41:39 32° 229° (SW) 2,108 11.1 -35.3°
Maximum altitude 22:44:13 40° 267° (W) 1,870 11.1 -35.5°
Drops below altitude 10° 22:51:30 10° 334° (NNW) 3,338 13.0 -36.3°
Sets 22:54:27 0° 342° (NNW) 4,281 13.7 -36.6°
